Home   Weather   Key West   Past weeks
Flag for USA

Past Weather in Key West, Florida, USA — Yesterday and Last 2 Weeks

Now
81 °F

Passing clouds.


Feels Like: 85 °F
Forecast: 85 / 77 °F
Wind: 17 mph from East

Location: Key West International Airport

Current Time: May 22, 2019 at 11:35:48 pm

Latest Report: May 22, 2019 at 10:53 pm


Visibility: 10 mi

Pressure: 30.08 "Hg

Humidity: 69%

Dew Point: 70 °F

Location of Key WestLocation

Past Weather in Key West — Graph

°F

Key West Temperature Yesterday

Maximum temperature yesterday: 85 °F (at 12:53 pm)
Minimum temperature yesterday: 80 °F (at 3:53 am)
Average temperature yesterday: 82 °F

High & Low Weather Summary for the Past Weeks

 TemperatureHumidityPressure
High92 °F (May 14, 3:53 pm)94% (May 16, 2:02 am)30.06 "Hg (May 16, 2:02 am)
Low75 °F (May 16, 2:02 am)53% (May 15, 5:53 pm)29.89 "Hg (May 12, 5:53 pm)
Average83 °F73%29.96 "Hg
* Reported May 7 9:53 pm — May 22 9:53 pm, Key West. Weather by CustomWeather, © 2019

Note: Actual official high and low records may vary slightly from our data, if they occured in-between our weather recording intervals... More about our weather records

Advertising

Key West Weather History for the Previous 24 Hours

Scroll right to see more
 ConditionsComfort  
Time TempWeatherWind HumidityBarometerVisibility
9:53 pm
Wed, May 22
81 °FClear.16 mph69%30.06 "Hg10 mi
8:53 pm81 °FClear.17 mph65%30.04 "Hg10 mi
7:53 pm82 °FSunny.20 mph58%30.02 "Hg10 mi
6:53 pm84 °FSunny.17 mph57%30.01 "Hg10 mi
5:53 pm85 °FSunny.16 mph61%30.00 "Hg10 mi
4:53 pm86 °FSunny.17 mph61%30.01 "Hg10 mi
3:53 pm87 °FSunny.16 mph63%30.01 "Hg10 mi
2:53 pm87 °FPassing clouds.14 mph65%30.02 "Hg10 mi
1:53 pm87 °FSunny.15 mph65%30.03 "Hg10 mi
12:53 pm86 °FSunny.13 mph63%30.04 "Hg10 mi
11:53 am86 °FSunny.12 mph65%30.04 "Hg10 mi
10:53 am85 °FPassing clouds.9 mph65%30.03 "Hg10 mi
9:53 am84 °FPassing clouds.8 mph70%30.02 "Hg10 mi
8:53 am83 °FSunny.7 mph70%30.01 "Hg10 mi
7:53 am82 °FPassing clouds.9 mph72%29.99 "Hg10 mi
6:53 am81 °FPassing clouds.7 mph72%29.98 "Hg10 mi
5:53 am80 °FPassing clouds.13 mph74%29.97 "Hg10 mi
4:53 am81 °FPassing clouds.12 mph74%29.96 "Hg10 mi
3:53 am81 °FPassing clouds.14 mph72%29.97 "Hg10 mi
2:53 am81 °FPassing clouds.16 mph74%29.98 "Hg10 mi
1:53 am81 °FPartly cloudy.18 mph74%29.98 "Hg10 mi
12:53 am81 °FPassing clouds.16 mph74%29.98 "Hg10 mi
11:53 pm
Tue, May 21
82 °FPassing clouds.16 mph72%29.99 "Hg10 mi
Weather by CustomWeather, © 2019

See weather overview